Location: Leuk
(46.3174°N, 7.6341°E)
Time: 17:33:08
(UTC+00:00)

Cosmos 1805 Rocket - Pass Details

Date: 09 March 2021
Orbit: 606 x 630 km, 82.5° (Epoch: 16 April)

Event Time Altitude Azimuth Distance (km) Brightness Sun altitude
Rises 04:27:19 0° 341° (NNW) 2,933 6.9 -15.7°
Reaches altitude 10° 04:29:47 10° 330° (NNW) 2,019 6.0 -15.3°
Maximum altitude 04:33:38 29° 271° (W) 1,155 4.4 -14.6°
Drops below altitude 10° 04:37:28 10° 211° (SSW) 1,999 5.8 -14.0°
Sets 04:39:54 0° 200° (SSW) 2,898 6.7 -13.5°
